Council, ID (83612)

3:39 AM MDT on April 28, 2017 (GMT -0600)
MCNCI1 | | Change Station

Elev 2948 ft 44.73 °N, 116.43 °W | Updated 2 hours ago

Overcast
Overcast
35.0 °F
Feels Like 35.0 °F
N
-
Wind Variable Wind from North

Today
High -- | Low -- °F
--% Chance of Precip.
Yesterday
High -- | Low -- °F
Precip. -- in
Pressure 30.06 in
Visibility 10.0 miles
Clouds Mostly Cloudy 6500 ft
Overcast 10000 ft
Dew Point Not available.
Humidity Not available.
Rainfall in
Snow Depth Not available.
6:39 AM 8:47 PM
Waxing Crescent, 5% visible
METAR KONO 280853Z AUTO VRB03KT 10SM BKN065 OVC100 06/00 A3004 RMK AO2 SLP178 T00560000 53009
Pressure 30.06 in
Visibility 10.0 miles
Clouds Mostly Cloudy 6500 ft
Overcast 10000 ft
Dew Point Not available.
Humidity Not available.
Rainfall in
Snow Depth Not available.
6:39 AM 8:47 PM
Waxing Crescent, 5% visible
METAR KONO 280853Z AUTO VRB03KT 10SM BKN065 OVC100 06/00 A3004 RMK AO2 SLP178 T00560000 53009

Get Severe Weather Alerts

Thanks for signing up!

Be on the lookout for a verification email in your inbox.

You'll start receiving the daily forecast at 8 AM.

×

10-Day Weather Forecast

Almanac

Astronomy

Apr. 28, 2017 Rise Set
Actual Time
Civil Twilight
Nautical Twilight
Astronomical Twilight
Moon
Length of Visible Light
Length of Day
Tomorrow will be .
, % of the Moon is Illuminated

Today's Extremes

State Highs State Lows

Community

WunderPhotos

WunderBlog® & News

Nearby

Air Quality

  Air Quality AQ Index Pollutant
Not available.

Snow Depth

Station Depth Elevation

Earthquake Activity

City Distance Mag. Time & Date
Minimum magnitude displayed is 2.5.

Coastal Water Temperatures

Place Temperature

Stations

Nearby Weather Stations

Station Location Temp. Windchill Dew Point Humidity Wind Precip. Elev Updated Type
                   

Watches & Warnings

There are currently no watches in effect.